Location: West Sayville
(40.7279°N, 73.0976°W)
Time: 07:51:53
(UTC+00:00)

Cosmos 2058 Rocket - Pass Details

Date: 29 October 2020
Orbit: 610 x 640 km, 82.5° (Epoch: 02 December)

Event Time Altitude Azimuth Distance (km) Brightness Sun altitude
Rises 23:07:29 0° 202° (SSW) 2,914 6.9 -14.9°
Reaches altitude 10° 23:09:47 10° 208° (SSW) 2,015 6.1 -15.3°
Maximum altitude 23:14:04 45° 281° (WNW) 875 4.3 -16.1°
Drops below altitude 10° 23:18:25 10° 355° (N) 2,039 5.7 -16.9°
Sets 23:20:46 0° 2° (N) 2,953 6.5 -17.4°
